Weather History for PAEN - September, 2013

Change the Weather History Date:

Wednesday, September 18, 2013

  Actual Average Record
Temperature  
Mean Temperature 45 °F -  
Max Temperature 52 °F 54 °F 66 °F (1969)
Min Temperature 39 °F 38 °F 21 °F (2000)
Degree Days  
Heating Degree Days 20    
Moisture  
Dew Point 42 °F    
Average Humidity 91    
Maximum Humidity 100    
Minimum Humidity 71    
Precipitation  
Precipitation 0.09 in - - ()
Sea Level Pressure  
Sea Level Pressure 29.59 in    
Wind  
Wind Speed 4 mph (SSE)    
Max Wind Speed 13 mph    
Max Gust Speed -    
Visibility 10 miles    
Events Rain    
Averages and records for this station are not official NWS values.
T = Trace of Precipitation, MM = Missing Value Source: NWS Daily Summary

Daily Weather History Graph

Daily Weather History Graph

Search for Another Location

Airport or City:

Trip Planner

Search our weather history database for the weather conditions in past years. The results will help you decide how hot, cold, wet, or windy it might be!

Date:

Astronomy

Sep. 18, 2013 Rise Set
Actual Time 7:40 AM AKDT 8:15 PM AKDT
Civil Twilight 6:57 AM AKDT 8:58 PM AKDT
Nautical Twilight 6:05 AM AKDT 9:50 PM AKDT
Astronomical Twilight 5:07 AM AKDT 10:47 PM AKDT
Moon 7:36 PM AKDT (9/18) 6:53 AM AKDT (9/18)
Length of Visible Light 14h 00m
Length of Day
12h 35m
Waxing Gibbous, 99% of the Moon is Illuminated
Sep 18
Waxing Gibbous
Sep 19
Full
Sep 26
Last Quarter
Oct 4
New
Oct 11
First Quarter

Hourly Weather History & Observations

Time (AKDT) Temp. Windchill Dew Point Humidity Pressure Visibility Wind Dir Wind Speed Gust Speed Precip Events Conditions
12:53 AM 41.0 °F 39.0 °F 41.0 °F 100% 29.55 in 10.0 mi ENE 3.5 mph - N/A   Mostly Cloudy
1:53 AM 39.9 °F - 39.9 °F 100% 29.56 in 9.0 mi Calm Calm - N/A   Partly Cloudy
2:02 AM 39.2 °F - 39.2 °F 100% 29.55 in 2.0 mi Calm Calm - N/A   Mostly Cloudy
2:12 AM 39.2 °F - 39.2 °F 100% 29.55 in 10.0 mi Calm Calm - N/A   Mostly Cloudy
2:53 AM 41.0 °F 39.0 °F 39.9 °F 96% 29.57 in 10.0 mi ENE 3.5 mph - N/A   Overcast
3:53 AM 43.0 °F - 42.1 °F 97% 29.57 in 10.0 mi Calm Calm - N/A   Overcast
4:53 AM 45.0 °F 41.2 °F 44.1 °F 97% 29.57 in 6.0 mi SE 6.9 mph - 0.09 in Rain Light Rain
5:05 AM 44.6 °F 41.4 °F 44.6 °F 100% 29.57 in 10.0 mi SSE 5.8 mph - 0.00 in   Overcast
5:41 AM 44.6 °F 42.2 °F 44.6 °F 100% 29.57 in 10.0 mi SSE 4.6 mph - 0.00 in   Overcast
5:53 AM 43.0 °F 39.5 °F 43.0 °F 100% 29.57 in 10.0 mi SSE 5.8 mph - 0.00 in   Mostly Cloudy
6:50 AM 42.8 °F - 42.8 °F 100% 29.58 in 10.0 mi Calm Calm - N/A   Mostly Cloudy
6:53 AM 42.1 °F 40.2 °F 42.1 °F 100% 29.58 in 10.0 mi SE 3.5 mph - N/A   Mostly Cloudy
7:40 AM 42.8 °F 41.1 °F 42.8 °F 100% 29.58 in 10.0 mi SE 3.5 mph - N/A   Overcast
7:53 AM 42.1 °F 39.2 °F 42.1 °F 100% 29.59 in 10.0 mi ESE 4.6 mph - N/A   Overcast
8:04 AM 42.8 °F 38.6 °F 42.8 °F 100% 29.58 in 10.0 mi SE 6.9 mph - N/A   Mostly Cloudy
8:53 AM 43.0 °F 39.5 °F 43.0 °F 100% 29.60 in 10.0 mi SSE 5.8 mph - N/A   Overcast
9:34 AM 44.6 °F 40.2 °F 42.8 °F 93% 29.59 in 10.0 mi SSE 8.1 mph - 0.00 in Rain Light Rain
9:53 AM 45.0 °F 41.2 °F 42.1 °F 90% 29.61 in 10.0 mi South 6.9 mph - 0.00 in   Overcast
10:53 AM 46.9 °F - 43.0 °F 86% 29.61 in 10.0 mi South 12.7 mph - N/A   Overcast
11:53 AM 46.9 °F - 42.1 °F 83% 29.62 in 10.0 mi SSW 11.5 mph - N/A   Overcast
12:53 PM 48.0 °F - 42.1 °F 80% 29.62 in 10.0 mi SW 8.1 mph - N/A   Overcast
1:53 PM 48.9 °F - 43.0 °F 80% 29.62 in 10.0 mi SW 6.9 mph - N/A   Mostly Cloudy
2:53 PM 48.9 °F - 42.1 °F 77% 29.63 in 10.0 mi SW 5.8 mph - N/A   Overcast
3:53 PM 48.9 °F - 42.1 °F 77% 29.63 in 10.0 mi WSW 5.8 mph - N/A   Overcast
4:53 PM 51.1 °F - 42.1 °F 71% 29.62 in 10.0 mi Calm Calm - N/A   Overcast
5:53 PM 50.0 °F - 41.0 °F 71% 29.62 in 10.0 mi SW 4.6 mph - N/A   Overcast
6:53 PM 48.9 °F - 42.1 °F 77% 29.62 in 10.0 mi SSW 5.8 mph - N/A   Overcast
7:53 PM 46.9 °F - 42.1 °F 83% 29.62 in 10.0 mi SW 3.5 mph - N/A   Overcast
8:53 PM 46.9 °F - 42.1 °F 83% 29.62 in 10.0 mi Calm Calm - N/A   Overcast
9:53 PM 44.1 °F 41.5 °F 39.9 °F 85% 29.62 in 10.0 mi South 4.6 mph - N/A   Partly Cloudy
10:53 PM 43.0 °F 40.3 °F 41.0 °F 93% 29.61 in 10.0 mi SE 4.6 mph - N/A   Mostly Cloudy
11:53 PM 43.0 °F 40.3 °F 39.9 °F 89% 29.60 in 10.0 mi SE 4.6 mph - N/A   Overcast